QPF
0.08 0.09 0.08 0.06 0.05 0.05 0.05 0.06 0.06 0.05 0.06 0.05 0.04 0.03 0.02 0.02 0.02 0.01 0.03 0.03 0.01 0.01 0.01 0.01 0.02 0.01 0.01 0.01 0.01 0.02 0.02 0.03 0.03 0.04 0.05 0.06 0.06 0.06
0.05 0.06 0.07 0.07 0.07 0.06 0.06 0.06 0.05 0.05 0.05 0.04 0.04 0.02 0.03 0.01 0.01 0.01 0.02 0.02 0.02 0.01 0.01 0.01 0.01 0.01 0.01 0.01 0.01 0.01 0.01 0.03 0.04 0.04 0.04 0.04 0.04 0.04
0.02 0.03 0.04 0.06 0.08 0.07 0.08 0.07 0.06 0.08 0.07 0.05 0.04 0.03 0.04 0.02 0.02 0.02 0.02 0.02 0.02 0.02 0.01 0.01 0.01 0.02 0.02 0.01 0.01 0.01 0.01 0.01 0.02 0.03 0.04 0.03 0.03 0.03
0.01 0.02 0.03 0.05 0.08 0.10 0.10 0.09 0.08 0.09 0.09 0.08 0.05 0.04 0.03 0.03 0.04 0.03 0.02 0.02 0.02 0.01 0.00 0.00 0.01 0.01 0.02 0.02 0.01 0.01 0.01 0.01 0.02 0.02 0.02 0.03 0.03 0.04
0.01 0.02 0.03 0.04 0.06 0.07 0.07 0.08 0.10 0.11 0.09 0.08 0.06 0.05 0.03 0.03 0.03 0.03 0.03 0.03 0.02 0.01 0.01 0.00 0.00 0.00 0.01 0.01 0.01 0.00 0.00 0.01 0.01 0.02 0.03 0.02 0.03 0.03
0.02 0.02 0.03 0.04 0.05 0.06 0.05 0.06 0.07 0.07 0.08 0.07 0.05 0.04 0.04 0.04 0.04 0.04 0.04 0.04 0.03 0.01 0.01 0.01 0.00 0.00 0.00 0.01 0.01 0.00 0.01 0.01 0.01 0.02 0.02 0.02 0.02 0.02
0.02 0.02 0.02 0.03 0.03 0.03 0.03 0.04 0.05 0.06 0.06 0.07 0.06 0.05 0.05 0.05 0.05 0.04 0.05 0.06 0.06 0.04 0.02 0.02 0.02 0.01 0.01 0.01 0.01 0.01 0.01 0.01 0.02 0.02 0.03 0.03 0.03 0.03
0.02 0.02 0.02 0.01 0.02 0.02 0.02 0.03 0.04 0.05 0.05 0.07 0.09 0.09 0.08 0.06 0.06 0.06 0.06 0.06 0.07 0.07 0.06 0.03 0.02 0.02 0.02 0.01 0.01 0.01 0.01 0.02 0.02 0.02 0.03 0.04 0.05 0.05
0.02 0.02 0.02 0.01 0.02 0.02 0.02 0.03 0.03 0.04 0.05 0.06 0.06 0.08 0.10 0.12 0.12 0.11 0.09 0.07 0.05 0.07 0.10 0.09 0.06 0.04 0.02 0.02 0.02 0.02 0.02 0.02 0.02 0.02 0.03 0.04 0.04 0.04
0.01 0.02 0.03 0.03 0.03 0.04 0.04 0.05 0.04 0.03 0.04 0.04 0.04 0.04 0.06 0.09 0.12 0.14 0.15 0.13 0.09 0.07 0.07 0.09 0.10 0.08 0.06 0.05 0.05 0.05 0.05 0.04 0.03 0.03 0.03 0.03 0.03 0.03
0.02 0.02 0.03 0.03 0.04 0.04 0.04 0.03 0.03 0.03 0.04 0.04 0.04 0.04 0.05 0.05 0.05 0.06 0.10 0.12 0.11 0.09 0.09 0.08 0.07 0.07 0.08 0.07 0.07 0.07 0.05 0.03 0.02 0.02 0.03 0.04 0.04 0.04
0.03 0.03 0.03 0.03 0.03 0.04 0.03 0.03 0.04 0.04 0.04 0.04 0.06 0.06 0.05 0.04 0.03 0.04 0.07 0.10 0.10 0.09 0.09 0.08 0.07 0.06 0.06 0.06 0.07 0.07 0.05 0.03 0.02 0.02 0.03 0.03 0.04 0.04
0.03 0.03 0.04 0.03 0.03 0.03 0.03 0.03 0.05 0.06 0.05 0.05 0.06 0.06 0.06 0.05 0.04 0.05 0.06 0.08 0.10 0.10 0.10 0.09 0.08 0.07 0.06 0.06 0.06 0.05 0.03 0.03 0.03 0.02 0.02 0.02 0.03 0.03
0.04 0.04 0.04 0.03 0.04 0.04 0.04 0.04 0.06 0.06 0.06 0.06 0.06 0.04 0.04 0.04 0.04 0.05 0.05 0.06 0.07 0.07 0.07 0.07 0.07 0.07 0.06 0.05 0.05 0.04 0.03 0.03 0.03 0.02 0.01 0.02 0.02 0.03
0.03 0.04 0.04 0.04 0.04 0.04 0.04 0.04 0.04 0.05 0.06 0.05 0.03 0.03 0.02 0.03 0.04 0.04 0.05 0.05 0.05 0.06 0.06 0.05 0.05 0.06 0.06 0.04 0.04 0.04 0.04 0.04 0.03 0.02 0.02 0.02 0.02 0.02
0.03 0.04 0.03 0.02 0.02 0.02 0.01 0.02 0.02 0.03 0.04 0.03 0.03 0.02 0.03 0.03 0.04 0.04 0.05 0.06 0.06 0.06 0.07 0.08 0.07 0.06 0.04 0.04 0.04 0.04 0.03 0.03 0.03 0.03 0.03 0.03 0.03 0.04
0.02 0.02 0.02 0.01 0.01 0.01 0.01 0.02 0.02 0.02 0.03 0.04 0.04 0.04 0.05 0.04 0.04 0.05 0.07 0.07 0.07 0.07 0.08 0.10 0.09 0.07 0.04 0.04 0.05 0.04 0.03 0.04 0.04 0.03 0.04 0.04 0.05 0.04
0.02 0.02 0.01 0.02 0.02 0.01 0.02 0.02 0.01 0.01 0.02 0.03 0.04 0.05 0.05 0.05 0.05 0.06 0.07 0.06 0.06 0.07 0.09 0.09 0.08 0.07 0.06 0.06 0.04 0.03 0.03 0.04 0.03 0.03 0.03 0.04 0.04 0.02
0.02 0.02 0.01 0.02 0.02 0.02 0.02 0.03 0.02 0.02 0.02 0.03 0.05 0.05 0.05 0.05 0.04 0.04 0.04 0.05 0.06 0.08 0.08 0.09 0.07 0.07 0.07 0.06 0.05 0.03 0.03 0.04 0.04 0.03 0.03 0.03 0.02 0.02
0.02 0.01 0.01 0.02 0.02 0.02 0.03 0.03 0.03 0.03 0.02 0.03 0.03 0.03 0.04 0.04 0.03 0.04 0.04 0.04 0.05 0.08 0.08 0.07 0.06 0.06 0.06 0.05 0.04 0.04 0.04 0.03 0.04 0.03 0.03 0.02 0.02 0.01
0.01 0.01 0.01 0.01 0.02 0.02 0.03 0.03 0.03 0.03 0.02 0.02 0.02 0.03 0.04 0.05 0.04 0.04 0.04 0.05 0.05 0.06 0.06 0.06 0.06 0.07 0.06 0.06 0.07 0.07 0.05 0.03 0.03 0.02 0.02 0.02 0.02 0.01
0.01 0.01 0.01 0.01 0.02 0.02 0.03 0.03 0.03 0.03 0.02 0.02 0.02 0.02 0.02 0.02 0.03 0.03 0.03 0.04 0.04 0.05 0.05 0.05 0.06 0.06 0.06 0.06 0.07 0.07 0.06 0.05 0.04 0.02 0.02 0.01 0.01 0.01
0.01 0.01 0.01 0.01 0.01 0.02 0.03 0.03 0.03 0.03 0.03 0.02 0.02 0.02 0.02 0.02 0.02 0.02 0.02 0.02 0.03 0.04 0.05 0.05 0.05 0.05 0.05 0.05 0.06 0.06 0.06 0.05 0.04 0.03 0.02 0.01 0.01 0.01
MSLP
1017.65 1017.58 1017.47 1017.29 1017.04 1016.71 1016.32 1015.91 1015.49 1015.11 1014.80 1014.57 1014.43 1014.36 1014.33 1014.32 1014.27 1014.17 1013.99 1013.73 1013.40 1013.02 1012.61 1012.19 1011.77 1011.35 1010.93 1010.49 1010.00 1009.46 1008.87 1008.22 1007.56 1006.92 1006.34 1005.90 1005.63 1005.56
1018.17 1018.12 1018.02 1017.86 1017.63 1017.31 1016.93 1016.50 1016.06 1015.64 1015.28 1014.99 1014.78 1014.64 1014.54 1014.45 1014.34 1014.17 1013.93 1013.62 1013.25 1012.84 1012.42 1012.01 1011.62 1011.24 1010.88 1010.49 1010.06 1009.56 1008.98 1008.31 1007.57 1006.82 1006.11 1005.49 1005.03 1004.77
1018.59 1018.56 1018.48 1018.35 1018.15 1017.86 1017.51 1017.10 1016.66 1016.24 1015.85 1015.52 1015.25 1015.03 1014.85 1014.66 1014.45 1014.18 1013.85 1013.45 1013.01 1012.55 1012.10 1011.68 1011.31 1010.97 1010.67 1010.36 1010.01 1009.57 1009.03 1008.37 1007.62 1006.81 1005.98 1005.22 1004.59 1004.15
1018.98 1018.95 1018.90 1018.79 1018.62 1018.37 1018.06 1017.68 1017.27 1016.86 1016.46 1016.09 1015.77 1015.48 1015.20 1014.91 1014.58 1014.21 1013.77 1013.27 1012.75 1012.22 1011.72 1011.28 1010.92 1010.62 1010.37 1010.14 1009.87 1009.51 1009.04 1008.44 1007.70 1006.86 1005.97 1005.10 1004.33 1003.72
1019.37 1019.34 1019.28 1019.19 1019.05 1018.83 1018.56 1018.22 1017.84 1017.43 1017.03 1016.64 1016.26 1015.90 1015.54 1015.15 1014.72 1014.24 1013.70 1013.11 1012.50 1011.91 1011.36 1010.90 1010.53 1010.25 1010.05 1009.87 1009.68 1009.41 1009.02 1008.48 1007.79 1006.97 1006.06 1005.12 1004.24 1003.50
1019.76 1019.71 1019.65 1019.56 1019.43 1019.23 1018.98 1018.66 1018.30 1017.91 1017.50 1017.08 1016.67 1016.25 1015.81 1015.35 1014.84 1014.27 1013.65 1012.99 1012.31 1011.66 1011.07 1010.58 1010.19 1009.91 1009.73 1009.59 1009.45 1009.25 1008.94 1008.48 1007.86 1007.08 1006.18 1005.22 1004.28 1003.45
1020.14 1020.07 1019.98 1019.88 1019.74 1019.55 1019.30 1019.00 1018.64 1018.24 1017.82 1017.38 1016.93 1016.46 1015.98 1015.46 1014.89 1014.27 1013.61 1012.90 1012.19 1011.51 1010.88 1010.35 1009.93 1009.63 1009.43 1009.30 1009.18 1009.03 1008.77 1008.38 1007.83 1007.12 1006.27 1005.33 1004.38 1003.49
1020.46 1020.36 1020.26 1020.13 1019.98 1019.78 1019.52 1019.20 1018.83 1018.42 1017.97 1017.50 1017.02 1016.52 1016.00 1015.45 1014.87 1014.24 1013.56 1012.85 1012.13 1011.43 1010.79 1010.22 1009.76 1009.41 1009.17 1009.00 1008.86 1008.71 1008.49 1008.15 1007.67 1007.03 1006.25 1005.37 1004.44 1003.55
1020.68 1020.56 1020.44 1020.30 1020.12 1019.90 1019.62 1019.28 1018.88 1018.44 1017.96 1017.45 1016.94 1016.41 1015.88 1015.33 1014.75 1014.14 1013.49 1012.81 1012.11 1011.42 1010.76 1010.16 1009.65 1009.23 1008.91 1008.68 1008.49 1008.31 1008.08 1007.77 1007.35 1006.79 1006.10 1005.29 1004.43 1003.57
1020.78 1020.65 1020.52 1020.36 1020.16 1019.92 1019.61 1019.24 1018.80 1018.32 1017.80 1017.26 1016.71 1016.17 1015.63 1015.09 1014.54 1013.97 1013.37 1012.75 1012.09 1011.42 1010.76 1010.14 1009.57 1009.08 1008.67 1008.34 1008.07 1007.83 1007.57 1007.27 1006.89 1006.40 1005.80 1005.09 1004.32 1003.52
1020.76 1020.63 1020.49 1020.32 1020.10 1019.83 1019.50 1019.09 1018.62 1018.09 1017.52 1016.94 1016.36 1015.80 1015.26 1014.74 1014.23 1013.72 1013.19 1012.63 1012.03 1011.41 1010.77 1010.13 1009.51 1008.94 1008.44 1008.00 1007.63 1007.31 1007.01 1006.70 1006.35 1005.92 1005.41 1004.81 1004.13 1003.42
1020.65 1020.52 1020.36 1020.18 1019.95 1019.66 1019.29 1018.85 1018.34 1017.77 1017.16 1016.54 1015.93 1015.35 1014.82 1014.32 1013.85 1013.40 1012.94 1012.45 1011.92 1011.35 1010.73 1010.09 1009.44 1008.81 1008.22 1007.69 1007.22 1006.82 1006.47 1006.14 1005.81 1005.44 1005.00 1004.49 1003.91 1003.29
1020.49 1020.34 1020.16 1019.96 1019.71 1019.39 1019.00 1018.53 1017.98 1017.37 1016.73 1016.07 1015.44 1014.85 1014.31 1013.83 1013.41 1013.01 1012.62 1012.21 1011.75 1011.24 1010.66 1010.03 1009.36 1008.68 1008.02 1007.41 1006.87 1006.40 1006.00 1005.65 1005.33 1005.00 1004.64 1004.22 1003.73 1003.19
1020.30 1020.11 1019.90 1019.66 1019.38 1019.04 1018.62 1018.12 1017.55 1016.91 1016.24 1015.57 1014.91 1014.32 1013.78 1013.33 1012.93 1012.59 1012.26 1011.91 1011.53 1011.07 1010.54 1009.93 1009.26 1008.56 1007.86 1007.19 1006.59 1006.06 1005.63 1005.26 1004.95 1004.66 1004.36 1004.02 1003.61 1003.15
1020.09 1019.84 1019.58 1019.30 1018.98 1018.61 1018.16 1017.64 1017.05 1016.41 1015.73 1015.05 1014.39 1013.79 1013.27 1012.84 1012.47 1012.17 1011.89 1011.60 1011.27 1010.86 1010.37 1009.79 1009.13 1008.42 1007.70 1007.00 1006.35 1005.80 1005.34 1004.97 1004.68 1004.43 1004.18 1003.91 1003.58 1003.18
1019.86 1019.54 1019.21 1018.87 1018.51 1018.11 1017.64 1017.12 1016.53 1015.89 1015.22 1014.54 1013.91 1013.33 1012.82 1012.41 1012.07 1011.80 1011.55 1011.30 1011.01 1010.64 1010.18 1009.61 1008.96 1008.25 1007.52 1006.80 1006.13 1005.56 1005.09 1004.73 1004.46 1004.25 1004.06 1003.85 1003.60 1003.27
1019.58 1019.19 1018.79 1018.40 1018.00 1017.57 1017.09 1016.57 1016.00 1015.38 1014.75 1014.11 1013.50 1012.95 1012.48 1012.09 1011.77 1011.51 1011.29 1011.06 1010.78 1010.42 1009.96 1009.41 1008.75 1008.03 1007.28 1006.55 1005.87 1005.29 1004.82 1004.47 1004.23 1004.06 1003.94 1003.81 1003.63 1003.38
1019.24 1018.78 1018.33 1017.90 1017.47 1017.03 1016.56 1016.06 1015.53 1014.96 1014.37 1013.78 1013.22 1012.71 1012.27 1011.90 1011.60 1011.35 1011.13 1010.88 1010.59 1010.22 1009.74 1009.16 1008.49 1007.74 1006.97 1006.21 1005.52 1004.93 1004.47 1004.14 1003.93 1003.82 1003.76 1003.71 1003.62 1003.46
1018.84 1018.34 1017.86 1017.41 1016.98 1016.55 1016.11 1015.65 1015.16 1014.65 1014.13 1013.60 1013.10 1012.63 1012.23 1011.88 1011.58 1011.32 1011.07 1010.79 1010.46 1010.04 1009.52 1008.89 1008.17 1007.39 1006.57 1005.78 1005.07 1004.47 1004.01 1003.70 1003.53 1003.48 1003.50 1003.54 1003.55 1003.49
1018.38 1017.89 1017.42 1016.98 1016.56 1016.17 1015.77 1015.37 1014.94 1014.50 1014.04 1013.57 1013.13 1012.70 1012.32 1011.98 1011.68 1011.39 1011.10 1010.77 1010.38 1009.90 1009.31 1008.61 1007.83 1006.98 1006.12 1005.29 1004.55 1003.93 1003.47 1003.18 1003.05 1003.06 1003.15 1003.29 1003.41 1003.46
1017.91 1017.45 1017.02 1016.63 1016.26 1015.92 1015.58 1015.24 1014.88 1014.50 1014.10 1013.69 1013.28 1012.89 1012.52 1012.18 1011.85 1011.53 1011.18 1010.79 1010.33 1009.77 1009.11 1008.34 1007.49 1006.58 1005.67 1004.80 1004.02 1003.39 1002.93 1002.65 1002.55 1002.61 1002.78 1003.01 1003.23 1003.40
1017.45 1017.07 1016.71 1016.39 1016.09 1015.81 1015.54 1015.26 1014.96 1014.63 1014.27 1013.90 1013.52 1013.14 1012.76 1012.40 1012.04 1011.67 1011.27 1010.81 1010.28 1009.66 1008.93 1008.10 1007.19 1006.24 1005.28 1004.38 1003.58 1002.93 1002.46 1002.19 1002.12 1002.21 1002.44 1002.74 1003.06 1003.33
1017.03 1016.75 1016.48 1016.25 1016.03 1015.82 1015.61 1015.39 1015.13 1014.83 1014.50 1014.14 1013.76 1013.37 1012.97 1012.57 1012.17 1011.75 1011.30 1010.80 1010.22 1009.54 1008.78 1007.92 1006.98 1006.01 1005.03 1004.11 1003.30 1002.64 1002.16 1001.89 1001.83 1001.94 1002.20 1002.55 1002.93 1003.28
Thickness
5744 5742 5741 5742 5742 5741 5739 5736 5729 5726 5729 5733 5733 5734 5732 5729 5725 5723 5722 5718 5716 5714 5713 5712 5712 5711 5710 5709 5709 5708 5707 5707 5706 5705 5705 5704 5703 5701
5739 5737 5736 5738 5738 5737 5736 5734 5731 5727 5725 5731 5730 5731 5727 5726 5722 5720 5719 5716 5713 5712 5710 5709 5708 5708 5707 5706 5705 5704 5704 5703 5702 5701 5701 5700 5699 5697
5734 5733 5731 5731 5732 5732 5731 5730 5728 5725 5721 5725 5728 5726 5721 5719 5717 5716 5716 5714 5713 5710 5707 5706 5705 5704 5703 5703 5702 5700 5699 5699 5698 5697 5696 5696 5695 5694
5729 5728 5727 5728 5725 5725 5724 5724 5723 5722 5718 5716 5719 5719 5716 5714 5713 5711 5713 5713 5712 5708 5705 5703 5701 5700 5700 5699 5697 5696 5695 5694 5694 5693 5692 5691 5690 5689
5724 5723 5722 5721 5719 5720 5718 5719 5719 5719 5716 5714 5713 5714 5712 5711 5708 5708 5709 5707 5708 5706 5702 5700 5698 5697 5696 5694 5693 5692 5691 5690 5689 5688 5687 5686 5685 5684
5720 5719 5718 5716 5714 5713 5713 5712 5712 5711 5710 5709 5709 5708 5706 5705 5702 5702 5702 5703 5702 5703 5701 5699 5696 5693 5692 5690 5689 5687 5686 5685 5684 5683 5682 5681 5680 5679
5714 5713 5713 5710 5708 5706 5708 5706 5705 5704 5705 5704 5703 5702 5700 5697 5696 5698 5697 5697 5697 5697 5696 5696 5694 5692 5690 5687 5684 5682 5681 5680 5678 5677 5676 5675 5674 5673
5708 5707 5707 5705 5702 5699 5698 5697 5696 5696 5696 5695 5695 5694 5691 5691 5691 5691 5690 5689 5689 5692 5689 5689 5690 5689 5687 5685 5682 5678 5675 5674 5672 5671 5670 5669 5668 5667
5701 5700 5702 5702 5697 5696 5693 5691 5690 5688 5687 5687 5688 5687 5687 5686 5684 5684 5682 5682 5682 5686 5683 5682 5683 5682 5682 5681 5676 5673 5670 5668 5666 5665 5663 5662 5662 5661
5696 5695 5693 5692 5691 5687 5687 5687 5686 5685 5683 5682 5683 5682 5682 5680 5678 5677 5677 5676 5677 5679 5678 5675 5677 5676 5676 5674 5669 5667 5664 5662 5660 5658 5657 5656 5655 5654
5691 5690 5687 5685 5680 5677 5679 5679 5679 5678 5677 5675 5674 5674 5673 5672 5671 5671 5671 5670 5671 5673 5672 5670 5671 5669 5668 5667 5664 5660 5658 5655 5653 5651 5650 5649 5648 5648
5687 5685 5681 5677 5673 5670 5671 5671 5670 5671 5671 5671 5669 5668 5668 5667 5665 5664 5666 5665 5666 5666 5666 5663 5664 5662 5659 5660 5658 5655 5652 5649 5647 5645 5644 5642 5641 5642
5682 5681 5678 5670 5666 5664 5663 5664 5662 5662 5664 5665 5665 5664 5664 5663 5662 5661 5661 5660 5659 5659 5660 5657 5656 5654 5653 5651 5651 5649 5647 5644 5641 5639 5637 5635 5634 5635
5675 5675 5672 5664 5661 5658 5658 5656 5655 5654 5658 5659 5658 5658 5658 5658 5658 5656 5655 5653 5652 5651 5650 5649 5648 5646 5645 5644 5643 5642 5640 5639 5637 5635 5634 5631 5628 5628
5669 5665 5661 5658 5656 5655 5652 5650 5650 5652 5653 5652 5652 5652 5652 5652 5651 5650 5649 5646 5644 5644 5643 5641 5641 5640 5639 5637 5636 5636 5633 5632 5631 5630 5628 5627 5626 5624
5662 5659 5655 5653 5652 5650 5649 5648 5648 5648 5646 5646 5646 5646 5646 5646 5644 5644 5642 5641 5639 5638 5636 5634 5632 5631 5631 5630 5630 5628 5627 5625 5625 5623 5622 5621 5621 5620
5655 5655 5655 5654 5651 5650 5648 5646 5645 5643 5641 5641 5640 5640 5639 5639 5638 5637 5634 5633 5631 5631 5630 5628 5626 5624 5623 5623 5622 5622 5621 5620 5618 5617 5614 5614 5615 5615
5648 5651 5650 5649 5648 5646 5644 5642 5641 5638 5636 5635 5634 5633 5632 5631 5630 5629 5628 5625 5624 5624 5623 5621 5619 5617 5616 5616 5614 5615 5615 5614 5613 5610 5609 5608 5609 5609
5644 5646 5645 5644 5642 5640 5638 5636 5635 5633 5630 5628 5627 5626 5625 5624 5623 5622 5620 5618 5617 5617 5617 5615 5613 5610 5608 5608 5608 5604 5606 5606 5605 5604 5603 5603 5603 5604
5641 5640 5639 5637 5635 5633 5631 5629 5627 5626 5623 5621 5620 5619 5618 5616 5615 5614 5613 5611 5611 5611 5610 5609 5607 5604 5602 5600 5599 5598 5597 5598 5598 5597 5597 5597 5596 5595
5636 5634 5632 5630 5628 5625 5623 5621 5620 5618 5616 5614 5613 5611 5610 5608 5607 5607 5606 5603 5602 5603 5603 5602 5600 5595 5594 5593 5592 5593 5593 5589 5590 5589 5589 5590 5591 5591
5630 5628 5626 5623 5620 5618 5615 5613 5612 5610 5609 5607 5607 5605 5603 5602 5601 5599 5599 5598 5597 5596 5595 5595 5592 5589 5587 5586 5586 5586 5586 5584 5582 5581 5580 5581 5583 5585
5624 5622 5619 5616 5614 5611 5609 5606 5604 5604 5601 5599 5598 5597 5596 5595 5594 5593 5591 5590 5589 5588 5588 5587 5585 5582 5581 5581 5580 5580 5579 5579 5579 5578 5578 5575 5574 5573